This is the latest recevied weather packets stored in our database for station/object KK4WXG. If no packets are shown the sender has not sent any weather packets the latest 10 day(s).
| Time | Temp. | Humidity | Pressure | Rain* | Wind** | Luminosity | Snow |
|---|---|---|---|---|---|---|---|
| 1778075770 | 15.56° C | 94% | 1008.7 hPa | 0.51 mm | - | 100 W/m² | - |
| 1778075466 | 15.56° C | 94% | 1008.7 hPa | 0.51 mm | - | 103 W/m² | - |
| 1778075163 | 15.56° C | 94% | 1008.9 hPa | 0 mm | - | 105 W/m² | - |
| 1778074859 | 15.56° C | 94% | 1008.7 hPa | 0 mm | - | 107 W/m² | - |
| 1778074556 | 15.56° C | 94% | 1008.7 hPa | 0.51 mm | - | 130 W/m² | - |
| 1778074253 | 15.56° C | 94% | 1009 hPa | 1.27 mm | - | 114 W/m² | - |
| 1778073950 | 15.56° C | 94% | 1008.8 hPa | 1.27 mm | - | 126 W/m² | - |
| 1778073647 | 15.56° C | 94% | 1008.7 hPa | 1.78 mm | - | 94 W/m² | - |
| 1778073344 | 15.56° C | 94% | 1009 hPa | 1.27 mm | - | 65 W/m² | - |
| 1778073040 | 15.56° C | 94% | 1009 hPa | 1.78 mm | - | 73 W/m² | - |
| 1778072738 | 15.56° C | 94% | 1009.1 hPa | 1.27 mm | - | 70 W/m² | - |
| 1778072435 | 15.56° C | 94% | 1009.2 hPa | 1.78 mm | - | 72 W/m² | - |
| 1778072133 | 15.56° C | 94% | 1009.4 hPa | 1.78 mm | - | 63 W/m² | - |
| 1778071831 | 15.56° C | 94% | 1009.4 hPa | 1.27 mm | - | 62 W/m² | - |
| 1778071529 | 15.56° C | 93% | 1009.4 hPa | 1.78 mm | - | 55 W/m² | - |
| 1778071226 | 15.56° C | 93% | 1008.9 hPa | 1.78 mm | - | 50 W/m² | - |
| 1778070924 | 15.56° C | 93% | 1008.8 hPa | 1.27 mm | - | 51 W/m² | - |
| 1778070622 | 15.56° C | 93% | 1009 hPa | 0.51 mm | - | 44 W/m² | - |
| 1778070318 | 15.56° C | 93% | 1009.1 hPa | 1.27 mm | - | 52 W/m² | - |
| 1778070016 | 15.56° C | 93% | 1008.9 hPa | 1.27 mm | - | 61 W/m² | - |
| 1778069714 | 15.56° C | 92% | 1008.8 hPa | 1.78 mm | - | 41 W/m² | - |
| 1778069410 | 15.56° C | 92% | 1008.9 hPa | 3.05 mm | - | 35 W/m² | - |
| 1778069108 | 15.56° C | 92% | 1009.1 hPa | 3.05 mm | - | 39 W/m² | - |
| 1778068805 | 15.56° C | 91% | 1009.1 hPa | 1.78 mm | - | 28 W/m² | - |
| 1778068503 | 15.56° C | 90% | 1009.3 hPa | 1.78 mm | - | 21 W/m² | - |
* Rain latest hour (hover to see other rain measurements)
** Current wind speed in m/s (hover to see current wind gust speed)